Simultaneous Nadir Overpasses (SNOs) Predictions

Prediction of SNOs between LANDSAT-8 and NPP Satellite Orbit:

Table of predicted SNOs for the next 14.0 days since TLE Epoch: 5/5/2017
Index Date (LANDSAT-8) Time (LANDSAT-8) Lat,Lon (LANDSAT-8) SZA (LANDSAT-8 ) Date (NPP) Time (NPP) Lat,Lon (NPP) SZA (NPP ) Distance(km) Time Diff (sec)
1 05/06/2017 06:08:08 -70.61, -94.99 126.09 05/06/2017 06:06:58 -70.65, -96.29 126.01 48.43 70
2 05/06/2017 06:57:43 70.07, 71.87 53.38 05/06/2017 06:57:33 70.07, 71.94 53.38 2.74 10
3 05/06/2017 07:47:13 -69.96,-120.65 126.74 05/06/2017 07:48:15 -69.98,-120.61 126.73 2.48 62
4 05/08/2017 22:24:46 -70.18, 20.26 127.24 05/08/2017 22:23:43 -70.15, 20.27 127.26 3.40 63
5 05/08/2017 23:14:14 70.03,-172.32 52.60 05/08/2017 23:14:27 70.04,-172.25 52.62 3.20 13
6 05/09/2017 00:03:51 -69.53, -5.37 127.89 05/09/2017 00:05:01 -69.53, -4.17 127.92 46.72 70
7 05/11/2017 14:41:18 -70.13, 136.07 127.98 05/11/2017 14:40:38 -70.13, 136.08 127.98 0.90 40
8 05/11/2017 15:30:45 70.03, -56.44 51.91 05/11/2017 15:31:22 70.01, -56.44 51.89 1.40 37
9 05/14/2017 06:08:11 70.67, 85.10 51.90 05/14/2017 06:07:01 70.72, 83.59 51.99 55.90 70
10 05/14/2017 06:57:50 -70.08,-108.14 128.70 05/14/2017 06:57:33 -70.10,-108.11 128.67 3.19 17
11 05/14/2017 07:47:17 69.97, 59.35 51.19 05/14/2017 07:48:17 69.99, 59.37 51.21 2.93 60
12 05/16/2017 22:24:51 70.17,-159.77 50.78 05/16/2017 22:23:46 70.18,-159.77 50.79 1.15 65
13 05/16/2017 23:14:21 -70.07, 7.72 129.33 05/16/2017 23:14:28 -70.08, 7.69 129.32 2.06 7
14 05/17/2017 00:03:55 69.57, 174.68 50.18 05/17/2017 00:05:05 69.60, 175.72 50.18 40.76 70




NCC Satellite Simultaneous Nadir Overpasses (SNOs) Prediction Service
